Location: Girdwood
(60.9430°N, 149.1660°W)
Time: 05:41:57
(UTC-08:00)

Amateur Radio Satellites - All Passes

Search period start: 27 May 2017 05:11
Search period end: 28 May 2017 05:11
Location: Girdwood, 60.9430°N, 149.1660°W

Satellite Date Start Highest point End Downlink Frequencies (MHz)
Time Altitude Azimuth
Gurwin Techsat 1B 27 May 05:12:55 05:18:08 56° 298° (WNW) 05:23:19 435.225
FO-29 27 May 05:13:41 05:15:17 11° 348° (NNW) 05:16:57 435.910
STARS 27 May 05:18:02 05:22:15 51° 63° (ENE) 05:26:31 437.465
ITUPSAT 1 27 May 05:29:47 05:33:02 18° 275° (W) 05:36:19 437.325
Oscar 19 27 May 05:30:34 05:35:11 33° 307° (NW) 05:39:46 437.125/150
MOZHAYETS 4 27 May 05:38:38 05:42:15 22° 272° (W) 05:45:53
PCSat 27 May 05:42:36 05:47:13 29° 242° (WSW) 05:51:48 145.827
AO-85 27 May 05:46:08 05:48:30 15° 120° (ESE) 05:50:51 145.980
AO-7 27 May 05:48:14 05:56:31 60° 105° (ESE) 06:04:47 .
BUGSAT 1 27 May 05:48:43 05:49:58 11° 321° (NW) 05:51:13 437.445
BEESAT 27 May 06:05:58 06:06:47 10° 283° (WNW) 06:07:36 436.000
CUBESAT XI-V 27 May 06:25:29 06:29:43 32° 267° (W) 06:33:58 437.345
KKS-1 27 May 06:26:02 06:30:00 31° 265° (W) 06:33:58 437.445
O/OREOS (USA 219) 27 May 06:26:32 06:31:09 84° 127° (SE) 06:35:46 437.305
STRAND 1 27 May 06:26:45 06:31:03 28° 49° (NE) 06:35:23 437.568
BEESAT 3 27 May 06:28:36 06:30:50 15° 118° (ESE) 06:33:05 437.485
ITAMSAT 1 27 May 06:33:10 06:38:20 64° 296° (WNW) 06:43:30 435.822/435.867
RS-15 27 May 06:36:24 06:48:51 83° 337° (NNW) 07:01:13 29.354- 29.394
LilacSat-2 27 May 06:38:21 06:38:44 10° 80° (E) 06:39:07 437.200
YUBILEINY 27 May 06:40:20 06:46:58 23° 333° (NNW) 06:53:39 435.215
DOVE 4 27 May 06:47:29 06:50:29 19° 88° (E) 06:53:30 437.250
SO-50 27 May 06:48:34 06:53:03 64° 218° (SW) 06:57:32 436.795
Gurwin Techsat 1B 27 May 06:53:28 06:57:12 20° 320° (NW) 07:00:55 435.225
CUTE-I 27 May 06:54:23 06:57:41 16° 82° (E) 07:00:59 437.470
STARS 27 May 06:54:51 06:58:49 33° 264° (W) 07:02:49 437.465
FO-29 27 May 06:56:13 06:58:04 12° 15° (NNE) 06:59:58 435.910
XW-2D 27 May 07:09:58 07:12:40 18° 87° (E) 07:15:21 145.860 - 145.880
Oscar 19 27 May 07:10:47 07:13:13 13° 330° (NNW) 07:15:39 437.125/150
M-CUBED/EXP-1 PRIME 27 May 07:15:47 07:18:58 24° 47° (NE) 07:21:59 437.505
XW-2B 27 May 07:17:48 07:20:43 20° 89° (E) 07:23:36 145.730 - 145.750
AO-85 27 May 07:24:15 07:28:12 57° 141° (SE) 07:32:04 145.980
NUDT-PHONESAT 27 May 07:26:39 07:29:27 19° 89° (E) 07:32:14 437.300
XW-2F 27 May 07:29:43 07:32:54 24° 91° (E) 07:36:04 145.980 - 146.000
XW-2C 27 May 07:31:18 07:34:35 25° 92° (E) 07:37:50 145.795 - 145.815
KAITUO 1B 27 May 07:36:03 07:39:11 23° 91° (E) 07:42:16 145.475/437.950
AO-7 27 May 07:41:18 07:49:26 59° 310° (NW) 07:57:34 .
BEESAT 2 27 May 07:46:10 07:49:28 25° 126° (SE) 07:52:49 435.950
BEESAT 3 27 May 08:03:45 08:07:41 54° 139° (SE) 08:11:38 437.485
STRAND 1 27 May 08:04:41 08:09:49 86° 251° (WSW) 08:14:59 437.568
O/OREOS (USA 219) 27 May 08:06:52 08:11:03 33° 330° (NNW) 08:15:14 437.305
LilacSat-2 27 May 08:10:05 08:13:56 53° 101° (E) 08:17:45 437.200
ITAMSAT 1 27 May 08:13:12 08:17:04 21° 318° (NW) 08:20:56 435.822/435.867
DOVE 4 27 May 08:24:37 08:28:48 83° 287° (WNW) 08:33:00 437.250
CUTE 1.7 + AOD 2 27 May 08:25:00 08:28:10 19° 87° (E) 08:31:17 437.475
TIGRISAT 27 May 08:27:58 08:30:14 14° 40° (NE) 08:32:32 435.000
SO-50 27 May 08:29:36 08:32:51 20° 239° (WSW) 08:36:05 436.795
HO-68 27 May 08:30:14 08:36:26 30° 89° (E) 08:42:36 435.675
CUTE-I 27 May 08:33:30 08:38:50 63° 104° (ESE) 08:44:09 437.470
FO-29 27 May 08:37:12 08:41:18 23° 40° (NE) 08:45:39 435.910
YUBILEINY 27 May 08:42:11 08:47:58 18° 7° (N) 08:53:47 435.215
XW-2D 27 May 08:43:29 08:47:24 83° 286° (WNW) 08:51:15 145.860 - 145.880
M-CUBED/EXP-1 PRIME 27 May 08:49:11 08:53:12 75° 246° (WSW) 08:56:55 437.505
RS-15 27 May 08:50:00 09:02:29 76° 9° (N) 09:14:40 29.354- 29.394
PRISM 27 May 08:51:19 08:54:23 20° 50° (NE) 08:57:26 437.425
XW-2B 27 May 08:51:29 08:55:22 74° 290° (WNW) 08:59:13 145.730 - 145.750
ZACube-1 27 May 08:56:27 08:57:37 11° 78° (ENE) 08:58:47 437.345
UNISAT 6 27 May 08:58:35 09:01:49 21° 48° (NE) 09:05:07 437.425
NUDT-PHONESAT 27 May 09:00:01 09:03:49 73° 288° (WNW) 09:07:35 437.300
XW-2F 27 May 09:03:33 09:07:22 60° 292° (WNW) 09:11:10 145.980 - 146.000
AO-85 27 May 09:04:44 09:08:39 57° 344° (NNW) 09:12:34 145.980
XW-2C 27 May 09:05:15 09:09:04 56° 293° (WNW) 09:12:52 145.795 - 145.815
KAITUO 1B 27 May 09:09:44 09:13:32 61° 291° (WNW) 09:17:17 145.475/437.950
CUBEBUG 2 27 May 09:10:46 09:14:39 27° 91° (E) 09:18:37 437.445
SEEDS 27 May 09:12:23 09:16:12 31° 94° (E) 09:19:58 437.485
XW-2A 27 May 09:17:14 09:20:29 37° 98° (E) 09:23:43 145.665 - 145.685
UWE-3 27 May 09:19:28 09:23:06 23° 89° (E) 09:26:47 435.000/436.395/437.385
BEESAT 2 27 May 09:22:47 09:26:50 84° 145° (SE) 09:30:56 435.950
AO-7 27 May 09:33:59 09:40:56 31° 335° (NNW) 09:47:53 .
BEESAT 3 27 May 09:41:19 09:45:19 60° 342° (NNW) 09:49:20 437.485
LilacSat-2 27 May 09:44:39 09:48:03 29° 302° (WNW) 09:51:25 437.200
STRAND 1 27 May 09:45:52 09:49:46 22° 273° (W) 09:53:42 437.568
O/OREOS (USA 219) 27 May 09:48:12 09:51:44 21° 355° (N) 09:55:14 437.305
Oscar 11 27 May 09:48:57 09:52:09 19° 87° (E) 09:55:19 .
ITAMSAT 1 27 May 09:54:22 09:54:53 10° 342° (NNW) 09:55:24 435.822/435.867
AIST 2D 27 May 09:58:57 09:59:54 11° 45° (NE) 10:00:50 435.315
CUTE 1.7 + AOD 2 27 May 10:00:15 10:04:35 86° 288° (WNW) 10:08:52 437.475
TIGRISAT 27 May 10:01:52 10:06:00 46° 62° (ENE) 10:10:15 435.000
DOVE 4 27 May 10:03:01 10:06:01 20° 310° (NW) 10:09:01 437.250
NANOSAT C BR1 27 May 10:03:52 10:05:12 11° 38° (NE) 10:06:33 145.865
POLYITAN 1 27 May 10:08:36 10:10:28 13° 40° (NE) 10:12:20 437.675
AAUSAT CUBESAT 2 27 May 10:09:25 10:13:30 49° 100° (E) 10:17:31 437.432
DUCHIFAT 1 27 May 10:13:43 10:15:21 12° 39° (NE) 10:16:59 145.980
CUTE-I 27 May 10:13:51 10:18:44 38° 306° (NW) 10:23:36 437.470
AO-73 27 May 10:16:07 10:20:19 36° 95° (E) 10:24:32 145.935
QB50P2 27 May 10:16:44 10:19:02 15° 43° (NE) 10:21:22 145.880/145.840
HO-68 27 May 10:17:52 10:25:09 87° 111° (ESE) 10:32:24 435.675
XW-2D 27 May 10:18:23 10:21:05 18° 309° (NW) 10:23:46 145.860 - 145.880
FO-29 27 May 10:20:24 10:25:36 70° 65° (ENE) 10:31:14 435.910
DELFI C3 27 May 10:21:36 10:23:24 13° 83° (E) 10:25:11 145.870
PRISM 27 May 10:25:03 10:29:11 86° 71° (ENE) 10:33:20 437.425
M-CUBED/EXP-1 PRIME 27 May 10:25:59 10:28:13 15° 265° (W) 10:30:23 437.505
XW-2B 27 May 10:26:29 10:29:00 17° 311° (NW) 10:31:30 145.730 - 145.750
ZACube-1 27 May 10:30:35 10:35:00 48° 99° (E) 10:39:27 437.345
UNISAT 6 27 May 10:33:39 10:37:59 80° 69° (ENE) 10:42:27 437.425
NUDT-PHONESAT 27 May 10:34:45 10:37:10 16° 310° (NW) 10:39:34 437.300
XW-2F 27 May 10:38:41 10:40:50 15° 313° (NW) 10:42:59 145.980 - 146.000
XW-2C 27 May 10:40:30 10:42:33 14° 314° (NW) 10:44:37 145.795 - 145.815
YUBILEINY 27 May 10:41:07 10:48:35 29° 39° (NE) 10:56:03 435.215
KAITUO 1B 27 May 10:44:44 10:46:53 15° 313° (NW) 10:49:01 145.475/437.950
AO-85 27 May 10:45:39 10:49:30 49° 8° (N) 10:53:24 145.980
CUBEBUG 2 27 May 10:47:10 10:51:39 67° 292° (WNW) 10:56:16 437.445
SEEDS 27 May 10:47:59 10:52:08 52° 295° (WNW) 10:56:13 437.485
XW-2A 27 May 10:50:06 10:53:13 32° 298° (WNW) 10:56:19 145.665 - 145.685
NO-84 27 May 10:51:21 10:54:26 19° 149° (SSE) 10:57:25 435.350 FM
EO-79 27 May 10:52:21 10:55:32 21° 50° (NE) 10:58:44 145.935-145.965
UWE-3 27 May 10:55:32 11:00:04 80° 290° (WNW) 11:04:42 435.000/436.395/437.385
BEESAT 2 27 May 11:00:54 11:04:53 51° 351° (N) 11:08:53 435.950
RS-15 27 May 11:03:11 11:15:33 79° 220° (SW) 11:27:28 29.354- 29.394
BEESAT 3 27 May 11:19:26 11:23:23 48° 5° (N) 11:27:19 437.485
Oscar 11 27 May 11:24:30 11:28:55 88° 286° (WNW) 11:33:17 .
AO-7 27 May 11:25:16 11:31:35 25° 2° (N) 11:37:55 .
O/OREOS (USA 219) 27 May 11:28:42 11:32:32 25° 20° (NNE) 11:36:21 437.305
AIST 2D 27 May 11:28:55 11:32:19 45° 66° (ENE) 11:35:45 435.315
NANOSAT C BR1 27 May 11:36:03 11:39:54 36° 59° (ENE) 11:43:47 145.865
CUTE 1.7 + AOD 2 27 May 11:36:41 11:39:56 21° 309° (NW) 11:43:09 437.475
TIGRISAT 27 May 11:38:48 11:42:50 37° 264° (W) 11:46:59 435.000
POLYITAN 1 27 May 11:41:21 11:45:19 42° 62° (ENE) 11:49:20 437.675
EO-88 27 May 11:44:24 11:47:58 42° 99° (E) 11:51:29 145.990 - 145.960
AAUSAT CUBESAT 2 27 May 11:45:07 11:48:52 33° 301° (WNW) 11:52:36 437.432
DUCHIFAT 1 27 May 11:46:09 11:50:03 39° 61° (ENE) 11:54:00 145.980
Gurwin Techsat 1B 27 May 11:48:04 11:51:09 16° 33° (NNE) 11:54:17 435.225
QB50P2 27 May 11:49:56 11:54:02 50° 64° (ENE) 11:58:09 145.880/145.840
ESTCUBE 1 27 May 11:50:09 11:50:58 10° 78° (ENE) 11:51:47 437.505/2401.250
AO-73 27 May 11:52:21 11:56:43 50° 296° (WNW) 12:01:08 145.935
CUTE-I 27 May 11:54:39 11:57:34 15° 329° (NNW) 12:00:29 437.470
DELFI C3 27 May 11:55:01 11:58:59 67° 104° (ESE) 12:02:54 145.870
BUGSAT 1 27 May 12:01:10 12:04:27 24° 54° (NE) 12:07:46 437.445
Oscar 19 27 May 12:01:32 12:05:23 21° 43° (NE) 12:09:14 437.125/150
PRISM 27 May 12:02:05 12:05:02 19° 271° (W) 12:08:01 437.425
HO-68 27 May 12:05:53 12:12:24 38° 316° (NW) 12:18:53 435.675
FO-29 27 May 12:06:45 12:11:21 30° 270° (W) 12:16:14 435.910
ZACube-1 27 May 12:07:03 12:11:15 38° 300° (WNW) 12:15:29 437.345
UNISAT 6 27 May 12:11:54 12:15:16 22° 272° (W) 12:18:42 437.425
CUBEBUG 2 27 May 12:24:32 12:27:38 19° 313° (NW) 12:30:48 437.445
SEEDS 27 May 12:24:40 12:27:00 15° 316° (NW) 12:29:20 437.485
LO-87 27 May 12:24:42 12:27:34 22° 92° (E) 12:30:24 145.935 - 145.965
AO-85 27 May 12:26:12 12:30:10 87° 211° (SSW) 12:34:13 145.980
EO-79 27 May 12:26:36 12:30:49 88° 77° (ENE) 12:35:05 145.935-145.965
NO-84 27 May 12:27:28 12:31:19 33° 170° (S) 12:34:56 435.350 FM
UWE-3 27 May 12:32:36 12:36:00 21° 310° (NW) 12:39:28 435.000/436.395/437.385
YUBILEINY 27 May 12:38:31 12:47:21 66° 67° (ENE) 12:56:09 435.215
BEESAT 2 27 May 12:39:07 12:43:08 54° 14° (NNE) 12:47:10 435.950
BEESAT 3 27 May 12:57:16 13:01:20 81° 27° (NNE) 13:05:23 437.485
Oscar 11 27 May 13:01:12 13:04:35 22° 309° (NW) 13:07:56 .
AIST 2D 27 May 13:02:37 13:05:42 27° 266° (W) 13:08:49 435.315
ITAMSAT 1 27 May 13:07:05 13:09:44 14° 30° (NNE) 13:12:24 435.822/435.867
O/OREOS (USA 219) 27 May 13:08:17 13:12:49 59° 44° (NE) 13:17:17 437.305
NANOSAT C BR1 27 May 13:11:33 13:15:35 46° 260° (W) 13:19:41 145.865
AO-7 27 May 13:15:11 13:22:19 34° 29° (NNE) 13:29:29 .
RS-15 27 May 13:15:50 13:26:36 39° 249° (WSW) 13:37:00 29.354- 29.394
POLYITAN 1 27 May 13:17:14 13:21:12 39° 263° (W) 13:25:12 437.675
EO-88 27 May 13:18:16 13:21:36 32° 300° (WNW) 13:24:55 145.990 - 145.960
DUCHIFAT 1 27 May 13:21:48 13:25:46 41° 262° (W) 13:29:47 145.980
AAUSAT CUBESAT 2 27 May 13:22:38 13:23:16 10° 323° (NW) 13:23:54 437.432
ESTCUBE 1 27 May 13:24:32 13:28:57 47° 100° (E) 13:33:18 437.505/2401.250
Gurwin Techsat 1B 27 May 13:25:00 13:29:58 41° 56° (NE) 13:34:57 435.225
QB50P2 27 May 13:26:15 13:30:02 32° 265° (W) 13:33:52 145.880/145.840
AO-73 27 May 13:29:31 13:32:06 15° 317° (NW) 13:34:44 145.935
DELFI C3 27 May 13:30:14 13:33:29 25° 305° (NW) 13:36:42 145.870
50 SAT 27 May 13:32:36 13:33:15 10° 84° (E) 13:33:53 437.505
BUGSAT 1 27 May 13:35:30 13:39:31 71° 255° (WSW) 13:43:35 437.445
Oscar 19 27 May 13:38:48 13:43:57 65° 65° (ENE) 13:49:08 437.125/150
ZACube-1 27 May 13:44:35 13:46:30 13° 322° (NW) 13:48:26 437.345
HO-68 27 May 13:53:28 13:58:28 21° 341° (NNW) 14:03:29 435.675
LO-87 27 May 13:57:48 14:01:18 56° 292° (WNW) 14:04:48 145.935 - 145.965
SPROUT 27 May 14:02:05 14:06:04 35° 96° (E) 14:10:00 437.525
EO-79 27 May 14:04:11 14:07:12 19° 273° (W) 14:10:14 145.935-145.965
NO-84 27 May 14:04:37 14:08:22 33° 191° (S) 14:11:52 435.350 FM
AO-85 27 May 14:06:52 14:10:11 26° 232° (SW) 14:13:35 145.980
VELOX 1 27 May 14:15:49 14:20:02 43° 99° (E) 14:24:13 145.980
BEESAT 2 27 May 14:17:01 14:21:05 69° 216° (SW) 14:25:08 435.950
BEESAT 3 27 May 14:35:03 14:38:41 32° 230° (SW) 14:42:18 437.485
YUBILEINY 27 May 14:35:40 14:44:00 49° 273° (W) 14:52:20 435.215
UKube-1 27 May 14:38:11 14:41:43 24° 91° (E) 14:45:13 .
ITAMSAT 1 27 May 14:43:18 14:47:58 35° 53° (NE) 14:52:41 435.822/435.867
DX 1 27 May 14:47:54 14:51:56 36° 97° (E) 14:55:57 434.975-435.025
O/OREOS (USA 219) 27 May 14:47:56 14:52:06 36° 247° (WSW) 14:56:14 437.305
ESTCUBE 1 27 May 15:01:31 15:05:44 39° 301° (WNW) 15:09:56 437.505/2401.250
50 SAT 27 May 15:03:25 15:06:50 65° 104° (ESE) 15:10:13 437.505
Gurwin Techsat 1B 27 May 15:04:38 15:09:52 56° 258° (WSW) 15:15:08 435.225
AO-7 27 May 15:05:50 15:14:02 67° 55° (NE) 15:22:17 .
CUTE-I 27 May 15:12:42 15:13:32 10° 18° (NNE) 15:14:22 437.470
BUGSAT 1 27 May 15:13:34 15:15:40 14° 276° (W) 15:17:47 437.445
Oscar 19 27 May 15:18:59 15:23:40 33° 266° (W) 15:28:22 437.125/150
RS-15 27 May 15:31:13 15:35:00 12° 277° (W) 15:38:46 29.354- 29.394
LO-87 27 May 15:32:28 15:34:04 13° 313° (NW) 15:35:41 145.935 - 145.965
SPROUT 27 May 15:38:00 15:42:07 46° 297° (WNW) 15:46:13 437.525
HO-68 27 May 15:39:25 15:43:58 18° 7° (N) 15:48:32 435.675
ITUPSAT 1 27 May 15:40:36 15:43:22 15° 83° (E) 15:46:08 437.325
NO-84 27 May 15:42:23 15:45:09 18° 212° (SSW) 15:47:46 435.350 FM
MOZHAYETS 4 27 May 15:46:21 15:47:48 11° 78° (ENE) 15:49:14
VELOX 1 27 May 15:52:24 15:56:32 41° 300° (WNW) 16:00:39 145.980
BEESAT 2 27 May 15:55:19 15:58:17 20° 238° (WSW) 16:01:15 435.950
BEESAT 27 May 16:12:44 16:16:40 24° 90° (E) 16:20:35 436.000
UKube-1 27 May 16:13:52 16:18:11 71° 292° (WNW) 16:22:28 .
ITAMSAT 1 27 May 16:22:06 16:27:15 66° 255° (WSW) 16:32:27 435.822/435.867
DX 1 27 May 16:24:05 16:28:17 47° 298° (WNW) 16:32:27 434.975-435.025
DOVE 4 27 May 16:27:00 16:29:38 16° 46° (NE) 16:32:12 437.250
XW-2D 27 May 16:30:10 16:30:39 10° 40° (NE) 16:31:09 145.860 - 145.880
YUBILEINY 27 May 16:33:39 16:38:37 17° 299° (WNW) 16:43:37 435.215
50 SAT 27 May 16:36:47 16:39:25 21° 305° (NW) 16:42:02 437.505
XW-2B 27 May 16:37:25 16:38:34 11° 42° (NE) 16:39:41 145.730 - 145.750
ESTCUBE 1 27 May 16:39:28 16:41:30 13° 323° (NW) 16:43:32 437.505/2401.250
NUDT-PHONESAT 27 May 16:44:58 16:45:36 10° 41° (NE) 16:46:15 437.300
CUTE-I 27 May 16:47:57 16:51:53 22° 41° (NE) 16:55:50 437.470
Gurwin Techsat 1B 27 May 16:48:10 16:51:01 14° 280° (W) 16:53:53 435.225
XW-2F 27 May 16:48:28 16:50:11 13° 44° (NE) 16:51:52 145.980 - 146.000
XW-2C 27 May 16:50:14 16:52:07 13° 45° (NE) 16:54:00 145.795 - 145.815
KAITUO 1B 27 May 16:54:10 16:55:42 12° 44° (NE) 16:57:16 145.475/437.950
AO-7 27 May 16:59:12 17:07:13 50° 259° (W) 17:15:19 .
SPROUT 27 May 17:15:00 17:17:10 14° 318° (NW) 17:19:20 437.525
ITUPSAT 1 27 May 17:17:22 17:22:11 63° 104° (ESE) 17:26:59 437.325
MOZHAYETS 4 27 May 17:21:33 17:26:07 49° 100° (E) 17:30:38
HO-68 27 May 17:23:51 17:29:41 28° 33° (NNE) 17:35:32 435.675
LilacSat-2 27 May 17:28:11 17:31:16 23° 54° (NE) 17:34:22 437.200
VELOX 1 27 May 17:30:00 17:32:01 13° 322° (NW) 17:34:02 145.980
BEESAT 27 May 17:50:10 17:55:00 79° 291° (WNW) 17:59:48 436.000
UKube-1 27 May 17:50:35 17:53:37 19° 314° (NW) 17:56:38 .
CUTE 1.7 + AOD 2 27 May 17:53:48 17:55:59 14° 42° (NE) 17:58:10 437.475
XW-2D 27 May 18:00:21 18:03:54 36° 62° (ENE) 18:07:29 145.860 - 145.880
DX 1 27 May 18:01:16 18:03:37 14° 320° (NW) 18:05:57 434.975-435.025
DOVE 4 27 May 18:02:20 18:06:40 60° 67° (ENE) 18:10:51 437.250
ITAMSAT 1 27 May 18:04:30 18:07:45 17° 277° (W) 18:11:01 435.822/435.867
KKS-1 27 May 18:06:01 18:09:49 27° 93° (E) 18:13:35 437.445
XW-2B 27 May 18:08:15 18:11:52 40° 63° (ENE) 18:15:31 145.730 - 145.750
CUBESAT XI-V 27 May 18:10:52 18:15:12 35° 95° (E) 18:19:28 437.345
NUDT-PHONESAT 27 May 18:15:07 18:18:37 38° 63° (ENE) 18:22:09 437.300
XW-2F 27 May 18:19:49 18:23:31 49° 66° (ENE) 18:27:15 145.980 - 146.000
XW-2C 27 May 18:21:49 18:25:33 52° 67° (ENE) 18:29:21 145.795 - 145.815
KAITUO 1B 27 May 18:25:15 18:28:55 47° 65° (ENE) 18:32:37 145.475/437.950
CUTE-I 27 May 18:25:55 18:31:09 64° 64° (ENE) 18:36:27 437.470
XW-2A 27 May 18:27:10 18:28:58 14° 49° (NE) 18:30:47 145.665 - 145.685
STARS 27 May 18:33:26 18:37:01 24° 91° (E) 18:40:36 437.465
SEEDS 27 May 18:39:27 18:42:28 19° 49° (NE) 18:45:29 437.485
CUBEBUG 2 27 May 18:43:54 18:46:48 18° 46° (NE) 18:49:44 437.445
UWE-3 27 May 18:51:55 18:54:30 16° 43° (NE) 18:57:09 435.000/436.395/437.385
ITUPSAT 1 27 May 18:55:30 18:59:50 34° 305° (NW) 19:04:08 437.325
AO-7 27 May 18:57:24 19:02:17 16° 284° (WNW) 19:07:13 .
MOZHAYETS 4 27 May 18:58:54 19:03:15 39° 301° (WNW) 19:07:34
LilacSat-2 27 May 19:01:21 19:05:14 73° 256° (WSW) 19:09:08 437.200
HO-68 27 May 19:09:18 19:16:22 62° 57° (ENE) 19:23:28 435.675
Oscar 11 27 May 19:19:29 19:21:52 15° 42° (NE) 19:24:15 .
CUTE 1.7 + AOD 2 27 May 19:26:49 19:30:57 47° 64° (ENE) 19:35:06 437.475
BEESAT 27 May 19:28:30 19:32:13 23° 313° (NW) 19:35:56 436.000
XW-2D 27 May 19:34:29 19:38:06 39° 262° (W) 19:41:46 145.860 - 145.880
AAUSAT CUBESAT 2 27 May 19:34:29 19:37:59 26° 55° (NE) 19:41:28 437.432
DOVE 4 27 May 19:40:55 19:44:43 27° 267° (W) 19:48:23 437.250
KKS-1 27 May 19:42:20 19:46:45 65° 294° (WNW) 19:51:10 437.445
XW-2B 27 May 19:42:36 19:46:09 34° 264° (W) 19:49:43 145.730 - 145.750
AO-73 27 May 19:46:23 19:49:44 22° 50° (NE) 19:53:08 145.935
CUBESAT XI-V 27 May 19:48:14 19:52:48 52° 296° (WNW) 19:57:19 437.345
NUDT-PHONESAT 27 May 19:49:06 19:52:35 35° 263° (W) 19:56:06 437.300
XW-2F 27 May 19:54:30 19:57:51 29° 266° (W) 20:01:16 145.980 - 146.000
XW-2C 27 May 19:56:42 20:00:01 27° 267° (W) 20:03:21 145.795 - 145.815
XW-2A 27 May 19:57:47 20:01:09 69° 70° (ENE) 20:04:34 145.665 - 145.685
KAITUO 1B 27 May 19:59:45 20:03:06 29° 266° (W) 20:06:30 145.475/437.950
ZACube-1 27 May 20:00:43 20:04:24 28° 55° (NE) 20:08:10 437.345
STRAND 1 27 May 20:05:26 20:08:47 17° 83° (E) 20:12:06 437.568
CUTE-I 27 May 20:06:45 20:11:35 34° 266° (W) 20:16:27 437.470
STARS 27 May 20:09:26 20:13:50 73° 292° (WNW) 20:18:13 437.465
SEEDS 27 May 20:13:20 20:17:36 76° 69° (ENE) 20:21:52 437.485
CUBEBUG 2 27 May 20:18:32 20:22:45 68° 68° (ENE) 20:27:05 437.445
UWE-3 27 May 20:25:59 20:30:09 55° 66° (ENE) 20:34:29 435.000/436.395/437.385
PCSat 27 May 20:33:34 20:38:19 32° 119° (ESE) 20:43:05 145.827
ITUPSAT 1 27 May 20:34:26 20:36:28 13° 328° (NNW) 20:38:28 437.325
MOZHAYETS 4 27 May 20:37:11 20:39:21 13° 323° (NW) 20:41:31
LilacSat-2 27 May 20:38:15 20:40:14 13° 276° (W) 20:42:14 437.200
Oscar 11 27 May 20:52:57 20:57:09 49° 64° (ENE) 21:01:24 .
HO-68 27 May 20:57:27 21:04:23 49° 261° (W) 21:11:23 435.675
EO-88 27 May 20:59:25 21:01:57 18° 51° (NE) 21:04:29 145.990 - 145.960
CUTE 1.7 + AOD 2 27 May 21:02:58 21:06:56 35° 264° (W) 21:10:56 437.475
AAUSAT CUBESAT 2 27 May 21:08:58 21:13:09 70° 256° (WSW) 21:17:21 437.432
DELFI C3 27 May 21:15:45 21:19:15 30° 58° (ENE) 21:22:44 145.870
KKS-1 27 May 21:19:37 21:22:39 18° 315° (NW) 21:25:41 437.445
AO-73 27 May 21:21:09 21:25:28 88° 68° (ENE) 21:29:56 145.935
ESTCUBE 1 27 May 21:24:40 21:26:03 11° 34° (NE) 21:27:27 437.505/2401.250
CUBESAT XI-V 27 May 21:26:26 21:29:19 16° 318° (NW) 21:32:10 437.345
XW-2A 27 May 21:31:59 21:34:19 17° 271° (W) 21:36:41 145.665 - 145.685
ZACube-1 27 May 21:36:07 21:40:24 68° 256° (WSW) 21:44:50 437.345
LO-87 27 May 21:39:57 21:40:43 11° 44° (NE) 21:41:30 145.935 - 145.965
STRAND 1 27 May 21:43:47 21:48:57 68° 105° (ESE) 21:54:05 437.568
STARS 27 May 21:46:27 21:49:35 20° 313° (NW) 21:52:43 437.465
SEEDS 27 May 21:50:25 21:53:46 22° 271° (W) 21:57:08 437.485
M-CUBED/EXP-1 PRIME 27 May 21:53:45 21:55:02 12° 93° (E) 21:56:19 437.505
CUBEBUG 2 27 May 21:56:21 21:59:50 24° 270° (W) 22:03:24 437.445
UWE-3 27 May 22:03:08 22:06:55 30° 267° (W) 22:10:49 435.000/436.395/437.385
VELOX 1 27 May 22:14:57 22:15:37 10° 33° (NNE) 22:16:18 145.980
PCSat 27 May 22:15:50 22:21:18 89° 323° (NW) 22:26:47 145.827
UNISAT 6 27 May 22:17:48 22:17:53 10° 77° (ENE) 22:17:58 437.425
Oscar 11 27 May 22:29:28 22:33:28 35° 265° (W) 22:37:30 .
EO-88 27 May 22:31:29 22:35:10 87° 72° (ENE) 22:38:53 145.990 - 145.960
Tancredo 1 27 May 22:36:46 22:37:22 10° 159° (SSE) 22:38:00 437.200
AAUSAT CUBESAT 2 27 May 22:47:08 22:49:25 14° 277° (W) 22:51:41 437.432
DELFI C3 27 May 22:49:57 22:53:52 53° 259° (W) 22:57:48 145.870
HO-68 27 May 22:50:11 22:54:04 15° 285° (WNW) 22:57:58 435.675
SO-50 27 May 22:54:42 22:56:22 12° 113° (ESE) 22:58:03 436.795
ESTCUBE 1 27 May 22:57:40 23:01:42 32° 56° (NE) 23:05:46 437.505/2401.250
AO-73 27 May 22:59:12 23:02:21 19° 274° (W) 23:05:35 145.935
FO-29 27 May 23:02:02 23:07:21 29° 89° (E) 23:13:11 435.910
LO-87 27 May 23:09:59 23:13:22 43° 65° (ENE) 23:16:46 145.935 - 145.965
ZACube-1 27 May 23:15:11 23:17:35 14° 278° (W) 23:20:01 437.345
TIGRISAT 27 May 23:19:22 23:23:14 26° 91° (E) 23:27:08 435.000
ISS 27 May 23:21:20 23:23:06 14° 164° (SSE) 23:24:50 437.550
STRAND 1 27 May 23:23:18 23:27:55 34° 307° (NW) 23:32:31 437.568
M-CUBED/EXP-1 PRIME 27 May 23:26:48 23:30:13 77° 114° (ESE) 23:33:30 437.505
SPROUT 27 May 23:30:21 23:33:40 23° 51° (NE) 23:37:00 437.525
PRISM 27 May 23:31:31 23:35:16 33° 97° (E) 23:38:58 437.425
VELOX 1 27 May 23:47:04 23:50:53 30° 55° (NE) 23:54:44 145.980
UNISAT 6 27 May 23:51:21 23:55:45 45° 98° (E) 00:00:14 437.425
PCSat 27 May 23:59:53 00:05:11 49° 346° (NNW) 00:10:29 145.827
YUBILEINY 28 May 00:01:02 00:06:02 17° 61° (ENE) 00:11:02 435.215
EO-88 28 May 00:07:03 00:09:24 16° 273° (W) 00:11:45 145.990 - 145.960
UKube-1 28 May 00:07:43 00:10:46 19° 46° (NE) 00:13:48 .
Tancredo 1 28 May 00:10:21 00:12:14 15° 179° (S) 00:14:07 437.200
50 SAT 28 May 00:13:06 00:15:49 22° 56° (ENE) 00:18:34 437.505
AIST 2D 28 May 00:17:45 00:19:56 15° 86° (E) 00:22:08 435.315
DX 1 28 May 00:17:51 00:21:27 26° 52° (NE) 00:25:03 434.975-435.025
DELFI C3 28 May 00:28:52 00:29:35 10° 280° (W) 00:30:19 145.870
SO-50 28 May 00:31:31 00:35:50 43° 134° (SE) 00:40:07 436.795
ESTCUBE 1 28 May 00:33:50 00:38:20 60° 257° (WSW) 00:42:52 437.505/2401.250
LO-87 28 May 00:43:52 00:46:58 28° 265° (W) 00:50:06 145.935 - 145.965
NANOSAT C BR1 28 May 00:45:57 00:48:43 17° 86° (E) 00:51:30 145.865
FO-29 28 May 00:47:00 00:53:07 89° 300° (WNW) 01:00:04 435.910
POLYITAN 1 28 May 00:51:46 00:54:56 20° 88° (E) 00:58:05 437.675
DUCHIFAT 1 28 May 00:55:40 00:58:37 18° 87° (E) 01:01:35 145.980
TIGRISAT 28 May 00:55:47 01:00:20 71° 292° (WNW) 01:04:58 435.000
ISS 28 May 00:56:32 00:58:43 17° 184° (S) 01:00:55 437.550
QB50P2 28 May 01:00:22 01:03:51 24° 91° (E) 01:07:20 145.880/145.840
M-CUBED/EXP-1 PRIME 28 May 01:01:45 01:04:22 20° 316° (NW) 01:06:54 437.505
STRAND 1 28 May 01:03:23 01:05:50 14° 329° (NNW) 01:08:18 437.568
SPROUT 28 May 01:04:54 01:09:09 87° 256° (WSW) 01:13:27 437.525
PRISM 28 May 01:06:47 01:10:43 46° 297° (WNW) 01:14:37 437.425
ITUPSAT 1 28 May 01:21:12 01:24:12 17° 39° (NE) 01:27:12 437.325
VELOX 1 28 May 01:22:44 01:27:08 64° 256° (WSW) 01:31:32 145.980
MOZHAYETS 4 28 May 01:23:11 01:24:53 12° 34° (NE) 01:26:36
UNISAT 6 28 May 01:28:13 01:32:30 42° 300° (WNW) 01:36:52 437.425
EO-79 28 May 01:36:41 01:40:45 40° 98° (E) 01:44:47 145.935-145.965
UKube-1 28 May 01:41:54 01:46:11 71° 69° (ENE) 01:50:31 .
Oscar 19 28 May 01:42:02 01:43:24 11° 76° (ENE) 01:44:45 437.125/150
RS-15 28 May 01:43:08 01:51:09 21° 94° (E) 01:59:12 29.354- 29.394
PCSat 28 May 01:44:11 01:49:28 47° 11° (NNE) 01:54:45 145.827
50 SAT 28 May 01:45:02 01:48:27 60° 256° (WSW) 01:51:53 437.505
Tancredo 1 28 May 01:46:01 01:47:07 11° 198° (SSW) 01:48:11 437.200
AIST 2D 28 May 01:50:05 01:53:42 87° 287° (WNW) 01:57:17 435.315
YUBILEINY 28 May 01:52:25 02:00:40 49° 87° (E) 02:09:00 435.215
BEESAT 28 May 01:52:33 01:56:17 23° 47° (NE) 02:00:02 436.000
DX 1 28 May 01:52:57 01:57:18 76° 253° (WSW) 02:01:41 434.975-435.025
SO-50 28 May 02:11:36 02:16:11 75° 338° (NNW) 02:20:43 436.795
ESTCUBE 1 28 May 02:13:52 02:16:06 13° 279° (W) 02:18:22 437.505/2401.250
NANOSAT C BR1 28 May 02:20:51 02:25:08 81° 107° (ESE) 02:29:24 145.865
POLYITAN 1 28 May 02:26:59 02:31:18 85° 289° (WNW) 02:35:36 437.675
DUCHIFAT 1 28 May 02:30:40 02:34:56 89° 103° (ESE) 02:39:12 145.980
FO-29 28 May 02:32:33 02:37:46 32° 311° (NW) 02:43:32 435.910
TIGRISAT 28 May 02:33:09 02:36:25 20° 313° (NW) 02:39:43 435.000
ISS 28 May 02:33:27 02:34:17 11° 204° (SSW) 02:35:07 437.550
QB50P2 28 May 02:35:49 02:40:05 70° 291° (WNW) 02:44:21 145.880/145.840
BUGSAT 1 28 May 02:42:07 02:46:08 48° 101° (E) 02:50:10 437.445
SPROUT 28 May 02:42:49 02:45:44 18° 274° (W) 02:48:39 437.525
PRISM 28 May 02:43:12 02:45:10 13° 319° (NW) 02:47:07 437.425
ITUPSAT 1 28 May 02:56:30 03:01:08 50° 61° (ENE) 03:05:48 437.325
MOZHAYETS 4 28 May 02:56:43 03:00:53 34° 57° (ENE) 03:05:05
VELOX 1 28 May 03:02:11 03:04:29 14° 277° (W) 03:06:46 145.980
UNISAT 6 28 May 03:06:01 03:08:15 14° 321° (NW) 03:10:30 437.425
Gurwin Techsat 1B 28 May 03:10:15 03:14:54 29° 91° (E) 03:19:30 435.225
EO-79 28 May 03:12:33 03:16:34 41° 299° (WNW) 03:20:35 145.935-145.965
Oscar 19 28 May 03:19:08 03:24:08 45° 98° (E) 03:29:03 437.125/150
UKube-1 28 May 03:19:10 03:22:41 24° 269° (W) 03:26:12 .
AIST 2D 28 May 03:24:03 03:26:27 17° 308° (NW) 03:28:51 435.315
PCSat 28 May 03:27:56 03:33:26 84° 37° (NE) 03:38:54 145.827
BEESAT 28 May 03:28:44 03:33:31 81° 68° (ENE) 03:38:20 436.000
DX 1 28 May 03:31:33 03:34:15 16° 274° (W) 03:36:58 434.975-435.025
KKS-1 28 May 03:38:32 03:41:53 22° 48° (NE) 03:45:15 437.445
CUBESAT XI-V 28 May 03:47:37 03:51:32 27° 52° (NE) 03:55:27 437.345
YUBILEINY 28 May 03:48:39 03:57:22 65° 293° (WNW) 04:06:10 435.215
RS-15 28 May 03:49:03 04:00:42 53° 122° (ESE) 04:12:24 29.354- 29.394
SO-50 28 May 03:52:35 03:57:03 54° 1° (N) 04:01:31 436.795
NANOSAT C BR1 28 May 03:57:04 04:00:28 24° 308° (NW) 04:03:52 145.865
POLYITAN 1 28 May 04:03:22 04:06:36 21° 310° (NW) 04:09:50 437.675
STARS 28 May 04:04:52 04:07:58 19° 46° (NE) 04:11:04 437.465
DUCHIFAT 1 28 May 04:06:54 04:10:10 22° 309° (NW) 04:13:27 145.980
QB50P2 28 May 04:12:20 04:15:16 18° 313° (NW) 04:18:12 145.880/145.840
BUGSAT 1 28 May 04:17:42 04:21:25 34° 301° (WNW) 04:25:11 437.445
FO-29 28 May 04:18:16 04:21:21 15° 335° (NNW) 04:24:36 435.910
ITAMSAT 1 28 May 04:24:43 04:28:47 22° 88° (E) 04:32:50 435.822/435.867
MOZHAYETS 4 28 May 04:33:20 04:37:54 58° 258° (WSW) 04:42:32
ITUPSAT 1 28 May 04:34:39 04:39:09 39° 263° (W) 04:43:40 437.325
AO-7 28 May 04:48:23 04:55:53 35° 92° (E) 05:03:22 .
EO-79 28 May 04:49:34 04:51:23 13° 320° (NW) 04:53:14 145.935-145.965
Gurwin Techsat 1B 28 May 04:50:02 04:55:22 75° 293° (WNW) 05:00:41 435.225
Oscar 19 28 May 04:58:35 05:03:34 48° 300° (WNW) 05:08:31 437.125/150
